{"data":{"norad_id":59776,"intl_designator":"2024-092D","name":"2024-092D","alt_names":[],"object_type":"PAYLOAD","status":"ACTIVE","operator":null,"country":"CIS","launch_date":"2024-05-16","launch_site_code":"PLMSC","launch_vehicle":null,"mission":null,"orbit_class":"UNKNOWN","rcs_meters":null,"size_class":null,"mass_kg":null,"dimensions":null,"purposes":[],"wikipedia_slug":null,"has_3d_model":false,"image_url":null,"decayed_at":null,"tle_current":{"epoch":"2026-09-22T07:42:27.961344Z","epoch_age_seconds":115362,"freshness":"FRESH","line1":"1 59776U 24092D   26265.32115696  .00015926  00000+0  39735-3 0  9997","line2":"2 59776  97.6693  42.7343 0006756 156.9100 203.2450 15.40260666130685","mean_motion":15.40260666,"eccentricity":0.0006756,"inclination_deg":97.6693,"raan_deg":42.7343,"arg_perigee_deg":156.91,"mean_anomaly_deg":203.245,"bstar":0.00039735,"rev_number":13068,"period_min":93.490668935903,"perigee_km":440.72942145497,"apogee_km":449.94930271542,"semimajor_km":6823.4763620852,"source":"CELESTRAK","updated_at":"2026-09-23T09:00:19.579643Z"}}}